Location: Little Arabia
(41.4620°N, 81.7687°W)
Time: 20:10:19
(UTC+00:00)

Cosmos 1553 Rocket - Pass Details

Date: 29 October 2020
Orbit: 940 x 1009 km, 82.9° (Epoch: 02 December)

Event Time Altitude Azimuth Distance (km) Brightness Sun altitude
Rises 22:53:35 0° 165° (SSE) 3,712 7.0 -6.0°
Reaches altitude 10° 22:56:14 10° 159° (SSE) 2,760 6.3 -6.5°
Maximum altitude 23:02:10 43° 90° (E) 1,359 4.4 -7.5°
Drops below altitude 10° 23:08:01 10° 21° (NNE) 2,737 6.1 -8.6°
Sets 23:10:38 0° 15° (NNE) 3,678 6.8 -9.1°
